Flag Weather past 2 weeks in Vieux Fort, Saint Lucia

Now
81 °F

Passing clouds.


Feels Like: 86 °F
Forecast: 80 / 86 °F
Wind: 14 mph from East

Location: Hewanorra International Airport

Current Time: Nov 29, 2014 at 12:03:25 AM

Latest Report: Nov 28, 2014 at 11:00 PM


Visibility: N/A

Pressure: 29.95 "Hg

Humidity: 84%

Dew point: 75 °F

Location of Vieux FortLocation

Historic Weather in Vieux Fort — Graph

°F

Vieux Fort temperature yesterday

Maximum temperature yesterday: 86 °F (at 1:00 PM)
Minimum temperature yesterday: 75 °F (at 6:00 AM)
Average temperature yesterday: 81 °F

Past Weeks' High & Low Weather Summary

 TemperatureHumidityPressure
High88 °F (Nov 14, 11:00 AM)94% (Nov 16, 4:00 AM)30.01 "Hg (Nov 16, 4:00 AM)
Low75 °F (Nov 21, 4:00 AM)62% (Nov 19, 12:00 PM)29.83 "Hg (Nov 14, 3:00 AM)
Average81 °F80%29.93 "Hg
* Reported Nov 13 11:00 PM — Nov 28 10:00 PM, Vieux Fort, Weather by CustomWeather, © 2014

Note: Actual official high and low records may vary slightly from our data, if they occured in-between our weather recording intervals... More about our weather records

Advertising

Vieux Fort weather history for previous 24 hours

 ConditionsComfort  
Time TempWeatherWind HumidityBarometerVisibility
10:00 PM
Nov 28
79 °FPassing clouds.14 mph94%29.95 "HgN/A
9:00 PM79 °FPassing clouds.8 mph94%29.95 "HgN/A
6:00 PM81 °FScattered showers. Passing clouds.6 mph89%29.92 "HgN/A
5:00 PM82 °FPartly sunny.14 mphN/A29.92 "HgN/A
4:00 PM84 °FPassing clouds.13 mph79%29.89 "HgN/A
3:00 PM84 °FPassing clouds.14 mph79%29.89 "HgN/A
2:00 PM86 °FScattered clouds.14 mph75%29.92 "HgN/A
1:00 PM86 °FPartly sunny.14 mph75%29.92 "HgN/A
12:00 PM84 °FPassing clouds.10 mph84%29.95 "HgN/A
11:00 AM84 °FPassing clouds.9 mph79%29.98 "HgN/A
10:00 AM82 °FScattered clouds.7 mph84%29.98 "HgN/A
9:00 AM82 °FScattered clouds.9 mph84%29.98 "HgN/A
8:00 AM81 °FScattered clouds.9 mph84%29.95 "HgN/A
7:00 AM77 °FPassing clouds.No wind94%29.92 "HgN/A
6:00 AM75 °FSprinkles. Passing clouds.8 mph94%29.92 "HgN/A
5:00 AM79 °FPassing clouds.7 mph89%29.89 "HgN/A
4:00 AM79 °FPassing clouds.8 mph89%29.89 "HgN/A
3:00 AM79 °FPassing clouds.12 mph89%29.89 "HgN/A
2:00 AM79 °FPassing clouds.12 mph89%29.89 "HgN/A
1:00 AM81 °FPassing clouds.14 mph84%29.92 "HgN/A
12:00 AM79 °FPassing clouds.10 mph89%29.92 "HgN/A
Weather by CustomWeather, © 2014

See weather overviewHow to use our weather pages